START_TIME,STEP,MOV.,A46,t_acc.,A13,t_acc.,M47,t_acc.,A17,t_acc.,A28,t_acc.,M38,t_acc.
1979-07-11 18:00:25.850 ,0,1,,0,64.,4.8,10.,4.8,,0,0.,4.8,20.,4.8
1979-07-11 18:00:30.650 ,0,1,,0,53.,4.8,3.,4.8,,0,0.,4.8,20.,4.8
1979-07-11 18:00:35.450 ,0,1,,0,36.,4.8,6.,4.8,,0,0.,4.8,27.,4.8
1979-07-11 18:00:40.250 ,0,1,,0,0.,4.8,0.,4.8,,0,0.,4.8,27.,4.8
1979-07-11 18:00:45.050 ,0,1,,0,0.,4.8,0.,4.8,,0,0.,4.8,14.,4.8
1979-07-11 18:00:49.850 ,4,1,,0,0.,4.8,0.,4.8,,0,0.,4.8,28.,4.8
1979-07-11 18:00:54.650 ,4,1,,0,0.,4.8,0.,4.8,,0,0.,4.8,17.,4.8
1979-07-11 18:00:59.450 ,4,1,,0,12.,4.8,0.,4.8,,0,0.,4.8,15.,4.8
1979-07-11 18:01:04.250 ,4,1,,0,63.,4.8,9.,4.8,,0,0.,4.8,24.,4.8
1979-07-11 18:01:09.050 ,4,1,,0,63.,4.8,11.,4.8,,0,0.,4.8,27.,4.8
1979-07-11 18:01:13.850 ,7,1,,0,62.,4.8,10.,4.8,,0,0.,4.8,31.,4.8
1979-07-11 18:01:18.650 ,7,1,,0,66.,4.8,12.,4.8,,0,0.,4.8,28.,4.8
1979-07-11 18:01:23.450 ,7,1,,0,51.,4.8,5.,4.8,,0,0.,4.8,23.,4.8
1979-07-11 18:01:28.250 ,7,1,,0,0.,4.8,0.,4.8,,0,0.,4.8,0.,4.8
1979-07-11 18:01:33.050 ,7,1,,0,0.,4.8,0.,4.8,,0,0.,4.8,0.,4.8
1979-07-11 18:01:37.850 ,3,1,,0,0.,4.8,0.,4.8,,0,0.,4.8,17.,4.8
1979-07-11 18:01:42.650 ,3,1,,0,0.,4.8,0.,4.8,,0,0.,4.8,18.,4.8
1979-07-11 18:01:47.450 ,3,1,,0,14.,4.8,2.,4.8,,0,0.,4.8,23.,4.8
1979-07-11 18:01:52.250 ,3,1,,0,60.,4.8,8.,4.8,,0,0.,4.8,24.,4.8
1979-07-11 18:01:57.050 ,3,1,,0,66.,4.8,11.,4.8,,0,0.,4.8,27.,4.8
1979-07-11 18:02:01.850 ,0,1,,0,64.,4.8,6.,4.8,,0,0.,4.8,21.,4.8
1979-07-11 18:02:06.650 ,0,1,,0,48.,4.8,6.,4.8,,0,0.,4.8,14.,4.8
1979-07-11 18:02:11.450 ,0,1,,0,47.,4.8,14.,4.8,,0,0.,4.8,20.,4.8
1979-07-11 18:02:16.250 ,0,1,,0,0.,4.8,0.,4.8,,0,0.,4.8,19.,4.8
1979-07-11 18:02:21.050 ,0,1,,0,0.,4.8,0.,4.8,,0,0.,4.8,30.,4.8
1979-07-11 18:02:25.850 ,4,1,,0,0.,4.8,0.,4.8,,0,0.,4.8,21.,4.8
1979-07-11 18:02:30.650 ,4,1,,0,0.,4.8,0.,4.8,,0,0.,4.8,17.,4.8
1979-07-11 18:02:35.450 ,4,1,,0,8.,4.8,0.,4.8,,0,0.,4.8,19.,4.8
1979-07-11 18:02:40.250 ,4,1,,0,68.,4.8,7.,4.8,,0,0.,4.8,26.,4.8
1979-07-11 18:02:45.050 ,4,1,,0,61.,4.8,8.,4.8,,0,0.,4.8,28.,4.8
1979-07-11 18:02:49.850 ,7,1,,0,64.,4.8,7.,4.8,,0,0.,4.8,24.,4.8
1979-07-11 18:02:54.650 ,7,1,,0,74.,4.8,10.,4.8,,0,0.,4.8,23.,4.8
1979-07-11 18:02:59.450 ,7,1,,0,64.,4.8,15.,4.8,,0,0.,4.8,24.,4.8
1979-07-11 18:03:04.250 ,7,1,,0,0.,4.8,0.,4.8,,0,0.,4.8,0.,4.8
1979-07-11 18:03:09.050 ,7,1,,0,0.,4.8,0.,4.8,,0,0.,4.8,0.,4.8
1979-07-11 18:03:13.850 ,3,1,,0,0.,4.8,0.,4.8,,0,0.,4.8,15.,4.8
1979-07-11 18:03:18.650 ,3,1,,0,0.,4.8,0.,4.8,,0,0.,4.8,24.,4.8
1979-07-11 18:03:23.450 ,3,1,,0,12.,4.8,1.,4.8,,0,0.,4.8,24.,4.8
1979-07-11 18:03:28.250 ,3,1,,0,76.,4.8,16.,4.8,,0,0.,4.8,23.,4.8
1979-07-11 18:03:33.050 ,3,1,,0,54.,4.8,4.,4.8,,0,0.,4.8,25.,4.8
1979-07-11 18:03:37.850 ,0,1,,0,72.,4.8,15.,4.8,,0,0.,4.8,28.,4.8
1979-07-11 18:03:42.650 ,0,1,,0,59.,4.8,16.,4.8,,0,0.,4.8,18.,4.8
1979-07-11 18:03:47.450 ,0,1,,0,32.,4.8,4.,4.8,,0,0.,4.8,14.,4.8
1979-07-11 18:03:52.250 ,0,1,,0,0.,4.8,0.,4.8,,0,0.,4.8,19.,4.8
1979-07-11 18:03:57.050 ,0,1,,0,0.,4.8,0.,4.8,,0,0.,4.8,21.,4.8
1979-07-11 18:04:01.850 ,4,1,,0,0.,4.8,0.,4.8,,0,0.,4.8,24.,4.8
1979-07-11 18:04:06.650 ,4,1,,0,0.,4.8,0.,4.8,,0,0.,4.8,21.,4.8
1979-07-11 18:04:11.450 ,4,1,,0,8.,4.8,4.,4.8,,0,0.,4.8,21.,4.8
1979-07-11 18:04:16.240 ,4,1,,0,62.,4.8,11.,4.8,,0,0.,4.8,33.,4.8
1979-07-11 18:04:21.050 ,4,1,,0,64.,4.8,14.,4.8,,0,0.,4.8,24.,4.8
1979-07-11 18:04:25.850 ,7,1,,0,80.,4.8,6.,4.8,,0,0.,4.8,28.,4.8
1979-07-11 18:04:30.650 ,7,1,,0,66.,4.8,6.,4.8,,0,0.,4.8,26.,4.8
1979-07-11 18:04:35.450 ,7,1,,0,55.,4.8,6.,4.8,,0,0.,4.8,23.,4.8
1979-07-11 18:04:40.240 ,7,1,,0,0.,4.8,0.,4.8,,0,0.,4.8,0.,4.8
1979-07-11 18:04:45.050 ,7,1,,0,0.,4.8,0.,4.8,,0,0.,4.8,0.,4.8
1979-07-11 18:04:49.850 ,3,1,,0,0.,4.8,0.,4.8,,0,0.,4.8,13.,4.8
1979-07-11 18:04:54.650 ,3,1,,0,0.,4.8,0.,4.8,,0,0.,4.8,30.,4.8
1979-07-11 18:04:59.450 ,3,1,,0,5.,4.8,0.,4.8,,0,0.,4.8,27.,4.8
1979-07-11 18:05:04.250 ,3,1,,0,76.,4.8,16.,4.8,,0,0.,4.8,27.,4.8
1979-07-11 18:05:09.050 ,3,1,,0,58.,4.8,8.,4.8,,0,0.,4.8,19.,4.8
1979-07-11 18:05:13.850 ,0,1,,0,51.,4.8,9.,4.8,,0,0.,4.8,18.,4.8
1979-07-11 18:05:18.650 ,0,1,,0,61.,4.8,9.,4.8,,0,0.,4.8,34.,4.8
1979-07-11 18:05:23.450 ,0,1,,0,44.,4.8,3.,4.8,,0,0.,4.8,17.,4.8
1979-07-11 18:05:28.240 ,0,1,,0,0.,4.8,0.,4.8,,0,0.,4.8,16.,4.8
1979-07-11 18:05:33.050 ,0,1,,0,0.,4.8,0.,4.8,,0,0.,4.8,18.,4.8
1979-07-11 18:05:37.850 ,0,0,,0,0.,4.8,0.,4.8,,0,0.,4.8,12.,4.8
1979-07-11 18:05:42.640 ,0,0,,0,0.,4.8,0.,4.8,,0,0.,4.8,18.,4.8
1979-07-11 18:05:47.450 ,0,0,,0,8.,4.8,1.,4.8,,0,0.,4.8,19.,4.8
1979-07-11 18:05:52.240 ,0,0,,0,68.,4.8,14.,4.8,,0,0.,4.8,27.,4.8
1979-07-11 18:05:57.050 ,0,0,,0,80.,4.8,18.,4.8,,0,0.,4.8,22.,4.8
1979-07-11 18:06:01.850 ,0,0,,0,68.,4.8,13.,4.8,,0,0.,4.8,25.,4.8
1979-07-11 18:06:06.650 ,0,0,,0,63.,4.8,14.,4.8,,0,0.,4.8,34.,4.8
1979-07-11 18:06:11.450 ,0,0,,0,57.,4.8,16.,4.8,,0,0.,4.8,16.,4.8
1979-07-11 18:06:16.240 ,0,0,,0,0.,4.8,0.,4.8,,0,0.,4.8,0.,4.8
1979-07-11 18:06:21.050 ,0,0,,0,0.,4.8,0.,4.8,,0,0.,4.8,0.,4.8
1979-07-11 18:06:25.850 ,5,0,,0,0.,4.8,0.,4.8,,0,0.,4.8,11.,4.8
1979-07-11 18:06:30.650 ,5,0,,0,0.,4.8,0.,4.8,,0,0.,4.8,30.,4.8
1979-07-11 18:06:35.450 ,5,0,,0,14.,4.8,2.,4.8,,0,0.,4.8,26.,4.8
1979-07-11 18:06:40.240 ,5,0,,0,76.,4.8,14.,4.8,,0,0.,4.8,24.,4.8
1979-07-11 18:06:45.050 ,5,0,,0,78.,4.8,12.,4.8,,0,0.,4.8,28.,4.8
1979-07-11 18:06:49.850 ,5,0,,0,60.,4.8,5.,4.8,,0,0.,4.8,29.,4.8
1979-07-11 18:06:54.640 ,5,0,,0,63.,4.8,11.,4.8,,0,0.,4.8,20.,4.8
1979-07-11 18:06:59.450 ,5,0,,0,57.,4.8,9.,4.8,,0,0.,4.8,23.,4.8
1979-07-11 18:07:04.250 ,5,0,,0,0.,4.8,0.,4.8,,0,0.,4.8,30.,4.8
1979-07-11 18:07:09.050 ,5,0,,0,0.,4.8,0.,4.8,,0,0.,4.8,27.,4.8
1979-07-11 18:07:13.850 ,4,0,,0,0.,4.8,0.,4.8,,0,0.,4.8,27.,4.8
1979-07-11 18:07:18.650 ,4,0,,0,0.,4.8,0.,4.8,,0,0.,4.8,21.,4.8
1979-07-11 18:07:23.450 ,4,0,,0,5.,4.8,0.,4.8,,0,0.,4.8,27.,4.8
1979-07-11 18:07:28.240 ,4,0,,0,68.,4.8,12.,4.8,,0,0.,4.8,26.,4.8
1979-07-11 18:07:33.050 ,4,0,,0,56.,4.8,8.,4.8,,0,0.,4.8,36.,4.8
1979-07-11 18:07:37.850 ,4,0,,0,60.,4.8,14.,4.8,,0,0.,4.8,23.,4.8
1979-07-11 18:07:42.640 ,4,0,,0,60.,4.8,10.,4.8,,0,0.,4.8,18.,4.8
1979-07-11 18:07:47.450 ,4,0,,0,56.,4.8,7.,4.8,,0,0.,4.8,25.,4.8
1979-07-11 18:07:52.240 ,4,0,,0,0.,4.8,0.,4.8,,0,0.,4.8,30.,4.8
1979-07-11 18:07:57.050 ,4,0,,0,0.,4.8,0.,4.8,,0,0.,4.8,28.,4.8
1979-07-11 18:08:01.850 ,0,0,,0,0.,4.8,0.,4.8,,0,0.,4.8,30.,4.8
1979-07-11 18:08:06.650 ,0,0,,0,0.,4.8,0.,4.8,,0,0.,4.8,24.,4.8
1979-07-11 18:08:11.450 ,0,0,,0,10.,4.8,2.,4.8,,0,0.,4.8,18.,4.8
1979-07-11 18:08:16.240 ,0,0,,0,56.,4.8,11.,4.8,,0,0.,4.8,18.,4.8
1979-07-11 18:08:21.050 ,0,0,,0,,0,,0,,0,,0,,0
1979-07-11 18:08:25.850 ,0,0,,0,54.,4.8,5.,4.8,,0,0.,4.8,23.,4.8
1979-07-11 18:08:30.650 ,0,0,,0,54.,4.8,11.,4.8,,0,0.,4.8,19.,4.8
1979-07-11 18:08:35.450 ,0,0,,0,50.,4.8,8.,4.8,,0,0.,4.8,19.,4.8
1979-07-11 18:08:40.240 ,0,0,,0,0.,4.8,0.,4.8,,0,0.,4.8,21.,4.8
1979-07-11 18:08:45.050 ,0,0,,0,0.,4.8,0.,4.8,,0,0.,4.8,18.,4.8
1979-07-11 18:09:01.240 ,0,0,,0,,0,,0,,0,,0,,0
1979-07-11 18:09:06.040 ,0,0,,0,,0,,0,,0,,0,,0
1979-07-11 18:09:10.850 ,0,0,,0,10.,4.8,2.,4.8,,0,0.,4.8,11.,4.8
1979-07-11 18:09:15.650 ,0,0,,0,53.,4.8,9.,4.8,,0,0.,4.8,24.,4.8
1979-07-11 18:09:20.450 ,0,0,,0,62.,4.8,8.,4.8,,0,0.,4.8,21.,4.8
1979-07-11 18:09:13.840 ,0,0,,0,52.,4.8,10.,4.8,,0,0.,4.8,18.,4.8
1979-07-11 18:09:18.640 ,0,0,,0,60.,4.8,12.,4.8,,0,0.,4.8,13.,4.8
1979-07-11 18:09:23.450 ,0,0,,0,42.,4.8,6.,4.8,,0,0.,4.8,26.,4.8
1979-07-11 18:09:28.240 ,0,0,,0,0.,4.8,0.,4.8,,0,0.,4.8,18.,4.8
1979-07-11 18:09:33.040 ,0,0,,0,0.,4.8,0.,4.8,,0,0.,4.8,17.,4.8
1979-07-11 18:09:37.840 ,1,0,,0,0.,4.8,0.,4.8,,0,0.,4.8,18.,4.8
1979-07-11 18:09:42.640 ,1,0,,0,0.,4.8,0.,4.8,,0,0.,4.8,23.,4.8
1979-07-11 18:09:47.450 ,1,0,,0,7.,4.8,0.,4.8,,0,0.,4.8,22.,4.8
1979-07-11 18:09:52.240 ,1,0,,0,47.,4.8,3.,4.8,,0,0.,4.8,12.,4.8
1979-07-11 18:09:57.040 ,1,0,,0,62.,4.8,14.,4.8,,0,0.,4.8,16.,4.8
1979-07-11 18:10:01.840 ,1,0,,0,54.,4.8,7.,4.8,,0,0.,4.8,16.,4.8
1979-07-11 18:10:06.640 ,1,0,,0,49.,4.8,13.,4.8,,0,0.,4.8,20.,4.8
1979-07-11 18:10:11.450 ,1,0,,0,32.,4.8,6.,4.8,,0,0.,4.8,24.,4.8
1979-07-11 18:10:16.240 ,1,0,,0,0.,4.8,0.,4.8,,0,0.,4.8,26.,4.8
1979-07-11 18:10:21.040 ,1,0,,0,0.,4.8,0.,4.8,,0,0.,4.8,21.,4.8
1979-07-11 18:10:25.840 ,0,0,,0,0.,4.8,0.,4.8,,0,0.,4.8,19.,4.8
1979-07-11 18:10:30.640 ,0,0,,0,0.,4.8,0.,4.8,,0,0.,4.8,16.,4.8
1979-07-11 18:10:35.450 ,0,0,,0,7.,4.8,0.,4.8,,0,0.,4.8,22.,4.8
1979-07-11 18:10:40.240 ,0,0,,0,47.,4.8,6.,4.8,,0,0.,4.8,22.,4.8
1979-07-11 18:10:45.040 ,0,0,,0,55.,4.8,12.,4.8,,0,0.,4.8,22.,4.8
1979-07-11 18:10:49.840 ,0,0,,0,44.,4.8,7.,4.8,,0,0.,4.8,19.,4.8
1979-07-11 18:10:54.640 ,0,0,,0,52.,4.8,7.,4.8,,0,0.,4.8,23.,4.8
1979-07-11 18:10:59.440 ,0,0,,0,38.,4.8,6.,4.8,,0,0.,4.8,16.,4.8
1979-07-11 18:11:04.240 ,0,0,,0,0.,4.8,0.,4.8,,0,0.,4.8,13.,4.8
1979-07-11 18:11:09.040 ,0,0,,0,0.,4.8,0.,4.8,,0,0.,4.8,19.,4.8
1979-07-11 18:11:13.840 ,0,0,,0,0.,4.8,0.,4.8,,0,0.,4.8,24.,4.8
1979-07-11 18:11:18.640 ,0,0,,0,0.,4.8,0.,4.8,,0,0.,4.8,17.,4.8
1979-07-11 18:11:23.450 ,0,0,,0,12.,4.8,3.,4.8,,0,0.,4.8,22.,4.8
1979-07-11 18:11:28.240 ,0,0,,0,52.,4.8,8.,4.8,,0,0.,4.8,20.,4.8
1979-07-11 18:11:33.040 ,0,0,,0,50.,4.8,9.,4.8,,0,0.,4.8,12.,4.8
1979-07-11 18:11:37.840 ,0,0,,0,51.,4.8,13.,4.8,,0,0.,4.8,23.,4.8
1979-07-11 18:11:42.640 ,0,0,,0,48.,4.8,4.,4.8,,0,0.,4.8,19.,4.8
1979-07-11 18:11:47.450 ,0,0,,0,48.,4.8,10.,4.8,,0,0.,4.8,17.,4.8
1979-07-11 18:11:52.240 ,0,0,,0,0.,4.8,0.,4.8,,0,0.,4.8,22.,4.8
1979-07-11 18:11:57.040 ,0,0,,0,0.,4.8,0.,4.8,,0,0.,4.8,16.,4.8
1979-07-11 18:12:01.840 ,1,0,,0,0.,4.8,0.,4.8,,0,0.,4.8,16.,4.8
1979-07-11 18:12:06.640 ,1,0,,0,0.,4.8,0.,4.8,,0,0.,4.8,21.,4.8
1979-07-11 18:12:11.440 ,1,0,,0,8.,4.8,1.,4.8,,0,0.,4.8,21.,4.8
1979-07-11 18:12:16.240 ,1,0,,0,68.,4.8,10.,4.8,,0,0.,4.8,19.,4.8
1979-07-11 18:12:21.040 ,1,0,,0,60.,4.8,9.,4.8,,0,0.,4.8,21.,4.8
1979-07-11 18:12:25.840 ,1,0,,0,64.,4.8,8.,4.8,,0,0.,4.8,16.,4.8
1979-07-11 18:12:30.640 ,1,0,,0,64.,4.8,14.,4.8,,0,0.,4.8,24.,4.8
1979-07-11 18:12:35.450 ,1,0,,0,41.,4.8,5.,4.8,,0,0.,4.8,17.,4.8
1979-07-11 18:12:40.240 ,1,0,,0,0.,4.8,0.,4.8,,0,0.,4.8,32.,4.8
1979-07-11 18:12:45.040 ,1,0,,0,0.,4.8,0.,4.8,,0,0.,4.8,24.,4.8
1979-07-11 18:12:49.840 ,2,0,,0,0.,4.8,0.,4.8,,0,0.,4.8,28.,4.8
1979-07-11 18:12:54.640 ,2,0,,0,0.,4.8,0.,4.8,,0,0.,4.8,20.,4.8
1979-07-11 18:12:59.440 ,2,0,,0,14.,4.8,6.,4.8,,0,0.,4.8,19.,4.8
1979-07-11 18:13:04.240 ,2,0,,0,60.,4.8,9.,4.8,,0,0.,4.8,28.,4.8
1979-07-11 18:13:09.040 ,2,0,,0,66.,4.8,10.,4.8,,0,0.,4.8,21.,4.8
1979-07-11 18:13:13.840 ,2,0,,0,52.,4.8,11.,4.8,,0,0.,4.8,17.,4.8
1979-07-11 18:13:18.640 ,2,0,,0,59.,4.8,10.,4.8,,0,0.,4.8,23.,4.8
1979-07-11 18:13:23.450 ,2,0,,0,49.,4.8,9.,4.8,,0,0.,4.8,28.,4.8
1979-07-11 18:13:28.240 ,2,0,,0,0.,4.8,0.,4.8,,0,0.,4.8,25.,4.8
1979-07-11 18:13:33.040 ,2,0,,0,0.,4.8,0.,4.8,,0,0.,4.8,20.,4.8
1979-07-11 18:13:37.840 ,3,0,,0,0.,4.8,0.,4.8,,0,0.,4.8,17.,4.8
1979-07-11 18:13:42.640 ,3,0,,0,0.,4.8,0.,4.8,,0,0.,4.8,20.,4.8
1979-07-11 18:13:47.450 ,3,0,,0,5.,4.8,0.,4.8,,0,0.,4.8,28.,4.8
1979-07-11 18:13:52.240 ,3,0,,0,74.,4.8,12.,4.8,,0,0.,4.8,24.,4.8
1979-07-11 18:13:57.040 ,3,0,,0,74.,4.8,15.,4.8,,0,0.,4.8,22.,4.8
1979-07-11 18:14:01.840 ,3,0,,0,60.,4.8,7.,4.8,,0,0.,4.8,21.,4.8
1979-07-11 18:14:06.640 ,3,0,,0,63.,4.8,13.,4.8,,0,0.,4.8,24.,4.8
1979-07-11 18:14:11.440 ,3,0,,0,61.,4.8,12.,4.8,,0,0.,4.8,17.,4.8
1979-07-11 18:14:16.240 ,3,0,,0,0.,4.8,0.,4.8,,0,0.,4.8,25.,4.8
1979-07-11 18:14:21.040 ,3,0,,0,0.,4.8,0.,4.8,,0,0.,4.8,23.,4.8
1979-07-11 18:14:25.840 ,4,0,,0,0.,4.8,0.,4.8,,0,0.,4.8,23.,4.8
1979-07-11 18:14:30.640 ,4,0,,0,0.,4.8,0.,4.8,,0,0.,4.8,27.,4.8
1979-07-11 18:14:35.450 ,4,0,,0,15.,4.8,2.,4.8,,0,0.,4.8,28.,4.8
1979-07-11 18:14:40.240 ,4,0,,0,82.,4.8,14.,4.8,,0,0.,4.8,31.,4.8
1979-07-11 18:14:45.040 ,4,0,,0,70.,4.8,17.,4.8,,0,0.,4.8,28.,4.8
1979-07-11 18:14:49.840 ,4,0,,0,60.,4.8,9.,4.8,,0,0.,4.8,31.,4.8
1979-07-11 18:14:54.640 ,4,0,,0,80.,4.8,14.,4.8,,0,0.,4.8,30.,4.8
1979-07-11 18:14:59.440 ,4,0,,0,64.,4.8,10.,4.8,,0,0.,4.8,35.,4.8
1979-07-11 18:15:04.240 ,4,0,,0,0.,4.8,0.,4.8,,0,0.,4.8,36.,4.8
1979-07-11 18:15:09.040 ,4,0,,0,0.,4.8,0.,4.8,,0,0.,4.8,31.,4.8
1979-07-11 18:15:13.840 ,5,0,,0,0.,4.8,0.,4.8,,0,0.,4.8,29.,4.8
1979-07-11 18:15:18.640 ,5,0,,0,0.,4.8,0.,4.8,,0,0.,4.8,28.,4.8
1979-07-11 18:15:23.440 ,5,0,,0,12.,4.8,0.,4.8,,0,0.,4.8,32.,4.8
1979-07-11 18:15:28.240 ,5,0,,0,88.,4.8,10.,4.8,,0,0.,4.8,28.,4.8
1979-07-11 18:15:33.040 ,5,0,,0,82.,4.8,18.,4.8,,0,0.,4.8,28.,4.8
1979-07-11 18:15:37.840 ,5,0,,0,72.,4.8,13.,4.8,,0,0.,4.8,30.,4.8
1979-07-11 18:15:42.640 ,5,0,,0,84.,4.8,7.,4.8,,0,0.,4.8,25.,4.8
1979-07-11 18:15:47.450 ,5,0,,0,72.,4.8,10.,4.8,,0,0.,4.8,30.,4.8
1979-07-11 18:15:52.240 ,5,0,,0,0.,4.8,0.,4.8,,0,0.,4.8,41.,4.8
1979-07-11 18:15:57.040 ,5,0,,0,0.,4.8,0.,4.8,,0,0.,4.8,35.,4.8
1979-07-11 18:16:01.840 ,6,0,,0,0.,4.8,0.,4.8,,0,0.,4.8,28.,4.8
1979-07-11 18:16:06.640 ,6,0,,0,0.,4.8,0.,4.8,,0,0.,4.8,26.,4.8
1979-07-11 18:16:11.440 ,6,0,,0,13.,4.8,2.,4.8,,0,0.,4.8,37.,4.8
1979-07-11 18:16:16.240 ,6,0,,0,76.,4.8,12.,4.8,,0,0.,4.8,27.,4.8
1979-07-11 18:16:21.040 ,6,0,,0,68.,4.8,9.,4.8,,0,0.,4.8,25.,4.8
1979-07-11 18:16:25.840 ,6,0,,0,78.,4.8,11.,4.8,,0,0.,4.8,33.,4.8
1979-07-11 18:16:30.640 ,6,0,,0,68.,4.8,12.,4.8,,0,0.,4.8,29.,4.8
1979-07-11 18:16:35.450 ,6,0,,0,59.,4.8,10.,4.8,,0,0.,4.8,21.,4.8
1979-07-11 18:16:40.240 ,6,0,,0,0.,4.8,0.,4.8,,0,0.,4.8,36.,4.8
1979-07-11 18:16:45.040 ,6,0,,0,0.,4.8,0.,4.8,,0,0.,4.8,28.,4.8
1979-07-11 18:16:49.840 ,7,0,,0,0.,4.8,0.,4.8,,0,0.,4.8,39.,4.8
1979-07-11 18:16:54.640 ,7,0,,0,0.,4.8,0.,4.8,,0,0.,4.8,18.,4.8
1979-07-11 18:16:59.440 ,7,0,,0,2.,4.8,0.,4.8,,0,0.,4.8,0.,4.8
1979-07-11 18:17:04.240 ,7,0,,0,9.,4.8,0.,4.8,,0,0.,4.8,0.,4.8
1979-07-11 18:17:09.040 ,7,0,,0,9.,4.8,0.,4.8,,0,0.,4.8,0.,4.8
1979-07-11 18:17:13.840 ,7,0,,0,10.,4.8,0.,4.8,,0,0.,4.8,0.,4.8
1979-07-11 18:17:18.650 ,7,0,,0,11.,4.8,0.,4.8,,0,0.,4.8,0.,4.8
1979-07-11 18:17:23.440 ,7,0,,0,9.,4.8,0.,4.8,,0,0.,4.8,0.,4.8
1979-07-11 18:17:28.240 ,7,0,,0,0.,4.8,0.,4.8,,0,0.,4.8,0.,4.8
1979-07-11 18:17:33.040 ,7,0,,0,0.,4.8,0.,4.8,,0,0.,4.8,0.,4.8
1979-07-11 18:17:37.840 ,7,0,,0,0.,4.8,0.,4.8,,0,0.,4.8,0.,4.8
1979-07-11 18:17:42.650 ,7,0,,0,0.,4.8,0.,4.8,,0,0.,4.8,0.,4.8
1979-07-11 18:17:47.440 ,7,0,,0,1.,4.8,0.,4.8,,0,0.,4.8,0.,4.8
1979-07-11 18:17:52.240 ,7,0,,0,12.,4.8,0.,4.8,,0,0.,4.8,0.,4.8
1979-07-11 18:17:57.050 ,7,0,,0,13.,4.8,0.,4.8,,0,0.,4.8,0.,4.8
1979-07-11 18:18:01.840 ,7,0,,0,11.,4.8,0.,4.8,,0,0.,4.8,0.,4.8
1979-07-11 18:18:06.650 ,7,0,,0,8.,4.8,0.,4.8,,0,0.,4.8,0.,4.8
1979-07-11 18:18:11.440 ,7,0,,0,9.,4.8,0.,4.8,,0,0.,4.8,0.,4.8
1979-07-11 18:18:16.240 ,7,0,,0,0.,4.8,0.,4.8,,0,0.,4.8,0.,4.8
1979-07-11 18:18:21.040 ,7,0,,0,0.,4.8,0.,4.8,,0,0.,4.8,0.,4.8
1979-07-11 18:18:25.840 ,6,0,,0,0.,4.8,0.,4.8,,0,0.,4.8,0.,4.8
1979-07-11 18:18:30.640 ,6,0,,0,0.,4.8,0.,4.8,,0,0.,4.8,4.,4.8
1979-07-11 18:18:35.440 ,6,0,,0,15.,4.8,2.,4.8,,0,0.,4.8,22.,4.8
1979-07-11 18:18:40.240 ,6,0,,0,84.,4.8,7.,4.8,,0,0.,4.8,33.,4.8
1979-07-11 18:18:45.040 ,6,0,,0,86.,4.8,14.,4.8,,0,0.,4.8,37.,4.8
1979-07-11 18:18:49.840 ,6,0,,0,84.,4.8,12.,4.8,,0,0.,4.8,27.,4.8
1979-07-11 18:18:54.640 ,6,0,,0,76.,4.8,11.,4.8,,0,0.,4.8,29.,4.8
1979-07-11 18:18:59.440 ,6,0,,0,68.,4.8,13.,4.8,,0,0.,4.8,31.,4.8
1979-07-11 18:19:04.240 ,6,0,,0,0.,4.8,0.,4.8,,0,0.,4.8,40.,4.8
1979-07-11 18:19:09.040 ,6,0,,0,0.,4.8,0.,4.8,,0,0.,4.8,35.,4.8
1979-07-11 18:19:13.840 ,5,0,,0,0.,4.8,0.,4.8,,0,0.,4.8,24.,4.8
1979-07-11 18:19:18.640 ,5,0,,0,0.,4.8,0.,4.8,,0,0.,4.8,38.,4.8
1979-07-11 18:19:23.440 ,5,0,,0,18.,4.8,3.,4.8,,0,0.,4.8,27.,4.8
1979-07-11 18:19:28.240 ,5,0,,0,92.,4.8,7.,4.8,,0,0.,4.8,28.,4.8
1979-07-11 18:19:33.040 ,5,0,,0,102.,4.8,16.,4.8,,0,0.,4.8,32.,4.8
1979-07-11 18:19:37.840 ,5,0,,0,94.,4.8,14.,4.8,,0,0.,4.8,39.,4.8
1979-07-11 18:19:42.640 ,5,0,,0,104.,4.8,19.,4.8,,0,0.,4.8,29.,4.8
1979-07-11 18:19:47.440 ,5,0,,0,74.,4.8,13.,4.8,,0,0.,4.8,31.,4.8
1979-07-11 18:19:52.240 ,5,0,,0,0.,4.8,0.,4.8,,0,0.,4.8,37.,4.8
1979-07-11 18:19:57.040 ,5,0,,0,0.,4.8,0.,4.8,,0,0.,4.8,33.,4.8
1979-07-11 18:20:01.840 ,4,0,,0,0.,4.8,0.,4.8,,0,0.,4.8,47.,4.8
1979-07-11 18:20:06.640 ,4,0,,0,0.,4.8,0.,4.8,,0,0.,4.8,35.,4.8
1979-07-11 18:20:11.440 ,4,0,,0,13.,4.8,1.,4.8,,0,0.,4.8,32.,4.8
1979-07-11 18:20:16.240 ,4,0,,0,84.,4.8,13.,4.8,,0,0.,4.8,32.,4.8
1979-07-11 18:20:21.040 ,4,0,,0,76.,4.8,16.,4.8,,0,0.,4.8,34.,4.8
1979-07-11 18:20:25.840 ,4,0,,0,74.,4.8,13.,4.8,,0,0.,4.8,26.,4.8
1979-07-11 18:20:30.640 ,4,0,,0,92.,4.8,16.,4.8,,0,0.,4.8,32.,4.8
1979-07-11 18:20:35.440 ,4,0,,0,76.,4.8,15.,4.8,,0,0.,4.8,35.,4.8
1979-07-11 18:20:40.240 ,4,0,,0,0.,4.8,0.,4.8,,0,0.,4.8,35.,4.8
1979-07-11 18:20:45.040 ,4,0,,0,0.,4.8,0.,4.8,,0,0.,4.8,36.,4.8
1979-07-11 18:20:49.840 ,3,0,,0,0.,4.8,0.,4.8,,0,0.,4.8,42.,4.8
1979-07-11 18:20:54.640 ,3,0,,0,0.,4.8,0.,4.8,,0,0.,4.8,33.,4.8
1979-07-11 18:20:59.440 ,3,0,,0,8.,4.8,1.,4.8,,0,0.,4.8,29.,4.8
1979-07-11 18:21:04.240 ,3,0,,0,70.,4.8,14.,4.8,,0,0.,4.8,31.,4.8
1979-07-11 18:21:09.040 ,3,0,,0,74.,4.8,6.,4.8,,0,0.,4.8,36.,4.8
1979-07-11 18:21:13.840 ,3,0,,0,66.,4.8,10.,4.8,,0,0.,4.8,28.,4.8
1979-07-11 18:21:18.640 ,3,0,,0,61.,4.8,8.,4.8,,0,0.,4.8,28.,4.8
1979-07-11 18:21:23.440 ,3,0,,0,61.,4.8,8.,4.8,,0,0.,4.8,32.,4.8
1979-07-11 18:21:28.240 ,3,0,,0,0.,4.8,0.,4.8,,0,0.,4.8,37.,4.8
1979-07-11 18:21:33.040 ,3,0,,0,0.,4.8,0.,4.8,,0,0.,4.8,24.,4.8
1979-07-11 18:21:37.840 ,2,0,,0,0.,4.8,0.,4.8,,0,0.,4.8,29.,4.8
1979-07-11 18:21:42.640 ,2,0,,0,0.,4.8,0.,4.8,,0,0.,4.8,32.,4.8
1979-07-11 18:21:47.440 ,2,0,,0,13.,4.8,3.,4.8,,0,0.,4.8,13.,4.8
1979-07-11 18:21:52.240 ,2,0,,0,51.,4.8,8.,4.8,,0,0.,4.8,23.,4.8
1979-07-11 18:21:57.040 ,2,0,,0,68.,4.8,10.,4.8,,0,0.,4.8,20.,4.8
1979-07-11 18:22:01.840 ,2,0,,0,60.,4.8,8.,4.8,,0,0.,4.8,23.,4.8
1979-07-11 18:22:06.640 ,2,0,,0,60.,4.8,15.,4.8,,0,0.,4.8,25.,4.8
1979-07-11 18:22:11.440 ,2,0,,0,70.,4.8,19.,4.8,,0,0.,4.8,26.,4.8
1979-07-11 18:22:16.240 ,2,0,,0,0.,4.8,0.,4.8,,0,0.,4.8,27.,4.8
1979-07-11 18:22:21.040 ,2,0,,0,0.,4.8,0.,4.8,,0,0.,4.8,21.,4.8
1979-07-11 18:22:25.840 ,1,0,,0,0.,4.8,0.,4.8,,0,0.,4.8,16.,4.8
1979-07-11 18:22:30.640 ,1,0,,0,0.,4.8,0.,4.8,,0,0.,4.8,26.,4.8
1979-07-11 18:22:35.440 ,1,0,,0,10.,4.8,1.,4.8,,0,0.,4.8,15.,4.8
1979-07-11 18:22:40.240 ,1,0,,0,61.,4.8,6.,4.8,,0,0.,4.8,23.,4.8
1979-07-11 18:22:45.040 ,1,0,,0,64.,4.8,10.,4.8,,0,0.,4.8,16.,4.8
1979-07-11 18:22:49.840 ,1,0,,0,76.,4.8,14.,4.8,,0,0.,4.8,15.,4.8
1979-07-11 18:22:54.640 ,1,0,,0,68.,4.8,15.,4.8,,0,0.,4.8,16.,4.8
1979-07-11 18:22:59.440 ,1,0,,0,44.,4.8,6.,4.8,,0,0.,4.8,22.,4.8
1979-07-11 18:23:04.240 ,1,0,,0,0.,4.8,0.,4.8,,0,0.,4.8,14.,4.8
1979-07-11 18:23:09.040 ,1,0,,0,0.,4.8,0.,4.8,,0,0.,4.8,18.,4.8
1979-07-11 18:23:13.840 ,0,0,,0,0.,4.8,0.,4.8,,0,0.,4.8,20.,4.8
1979-07-11 18:23:18.640 ,0,0,,0,0.,4.8,0.,4.8,,0,0.,4.8,23.,4.8
1979-07-11 18:23:23.440 ,0,0,,0,5.,4.8,1.,4.8,,0,0.,4.8,12.,4.8
1979-07-11 18:23:28.240 ,0,0,,0,54.,4.8,10.,4.8,,0,0.,4.8,23.,4.8
1979-07-11 18:23:33.040 ,0,0,,0,64.,4.8,7.,4.8,,0,0.,4.8,19.,4.8
1979-07-11 18:23:37.840 ,0,0,,0,51.,4.8,11.,4.8,,0,0.,4.8,21.,4.8
1979-07-11 18:23:42.640 ,0,0,,0,60.,4.8,13.,4.8,,0,0.,4.8,18.,4.8
1979-07-11 18:23:47.440 ,0,0,,0,41.,4.8,9.,4.8,,0,0.,4.8,30.,4.8
1979-07-11 18:23:52.240 ,0,0,,0,0.,4.8,0.,4.8,,0,0.,4.8,22.,4.8
1979-07-11 18:23:57.040 ,0,0,,0,0.,4.8,0.,4.8,,0,0.,4.8,29.,4.8
1979-07-11 18:24:01.840 ,0,0,,0,0.,4.8,0.,4.8,,0,0.,4.8,25.,4.8
1979-07-11 18:24:06.640 ,0,0,,0,0.,4.8,0.,4.8,,0,0.,4.8,27.,4.8
1979-07-11 18:24:11.440 ,0,0,,0,11.,4.8,3.,4.8,,0,0.,4.8,19.,4.8
1979-07-11 18:24:16.240 ,0,0,,0,53.,4.8,10.,4.8,,0,0.,4.8,27.,4.8
1979-07-11 18:24:21.040 ,0,0,,0,68.,4.8,10.,4.8,,0,0.,4.8,19.,4.8
1979-07-11 18:24:25.840 ,0,0,,0,72.,4.8,13.,4.8,,0,0.,4.8,18.,4.8
1979-07-11 18:24:30.640 ,0,0,,0,53.,4.8,2.,4.8,,0,0.,4.8,29.,4.8
1979-07-11 18:24:35.440 ,0,0,,0,55.,4.8,3.,4.8,,0,0.,4.8,27.,4.8
1979-07-11 18:24:40.240 ,0,0,,0,0.,4.8,0.,4.8,,0,0.,4.8,27.,4.8
1979-07-11 18:24:45.040 ,0,0,,0,0.,4.8,0.,4.8,,0,0.,4.8,25.,4.8
1979-07-11 18:24:49.840 ,1,0,,0,0.,4.8,0.,4.8,,0,0.,4.8,34.,4.8
1979-07-11 18:24:54.640 ,1,0,,0,0.,4.8,0.,4.8,,0,0.,4.8,21.,4.8
1979-07-11 18:24:59.440 ,1,0,,0,5.,4.8,1.,4.8,,0,0.,4.8,30.,4.8
1979-07-11 18:25:04.240 ,1,0,,0,56.,4.8,9.,4.8,,0,0.,4.8,28.,4.8
1979-07-11 18:25:09.040 ,1,0,,0,70.,4.8,7.,4.8,,0,0.,4.8,29.,4.8
1979-07-11 18:25:13.840 ,1,0,,0,72.,4.8,8.,4.8,,0,0.,4.8,24.,4.8
1979-07-11 18:25:18.640 ,1,0,,0,96.,4.8,13.,4.8,,0,0.,4.8,32.,4.8
1979-07-11 18:25:23.440 ,1,0,,0,78.,4.8,9.,4.8,,0,0.,4.8,35.,4.8
1979-07-11 18:25:28.240 ,1,0,,0,0.,4.8,0.,4.8,,0,0.,4.8,35.,4.8
1979-07-11 18:25:33.040 ,1,0,,0,0.,4.8,0.,4.8,,0,0.,4.8,49.,4.8
1979-07-11 18:25:37.840 ,2,0,,0,0.,4.8,0.,4.8,,0,0.,4.8,21.,4.8
1979-07-11 18:25:42.640 ,2,0,,0,0.,4.8,0.,4.8,,0,0.,4.8,27.,4.8
1979-07-11 18:25:47.440 ,2,0,,0,17.,4.8,3.,4.8,,0,0.,4.8,33.,4.8
1979-07-11 18:25:52.240 ,2,0,,0,94.,4.8,11.,4.8,,0,0.,4.8,31.,4.8
1979-07-11 18:25:57.040 ,2,0,,0,110.,4.8,19.,4.8,,0,0.,4.8,36.,4.8
1979-07-11 18:26:01.840 ,2,0,,0,84.,4.8,7.,4.8,,0,0.,4.8,34.,4.8
1979-07-11 18:26:06.640 ,2,0,,0,94.,4.8,10.,4.8,,0,0.,4.8,33.,4.8
1979-07-11 18:26:11.440 ,2,0,,0,76.,4.8,7.,4.8,,0,0.,4.8,31.,4.8
1979-07-11 18:26:16.240 ,2,0,,0,0.,4.8,0.,4.8,,0,0.,4.8,39.,4.8
1979-07-11 18:26:21.040 ,2,0,,0,0.,4.8,0.,4.8,,0,0.,4.8,39.,4.8
1979-07-11 18:26:25.840 ,3,0,,0,0.,4.8,0.,4.8,,0,0.,4.8,25.,4.8
1979-07-11 18:26:30.640 ,3,0,,0,0.,4.8,0.,4.8,,0,0.,4.8,41.,4.8
1979-07-11 18:26:35.440 ,3,0,,0,17.,4.8,2.,4.8,,0,0.,4.8,39.,4.8
1979-07-11 18:26:40.240 ,3,0,,0,90.,4.8,10.,4.8,,0,0.,4.8,38.,4.8
1979-07-11 18:26:45.040 ,3,0,,0,116.,4.8,15.,4.8,,0,0.,4.8,43.,4.8
1979-07-11 18:26:49.840 ,3,0,,0,132.,4.8,21.,4.8,,0,0.,4.8,49.,4.8
1979-07-11 18:26:54.640 ,3,0,,0,144.,4.8,20.,4.8,,0,0.,4.8,32.,4.8
1979-07-11 18:26:59.440 ,3,0,,0,98.,4.8,15.,4.8,,0,0.,4.8,41.,4.8
1979-07-11 18:27:04.240 ,3,0,,0,0.,4.8,0.,4.8,,0,0.,4.8,38.,4.8
1979-07-11 18:27:09.040 ,3,0,,0,0.,4.8,0.,4.8,,0,0.,4.8,35.,4.8
1979-07-11 18:27:13.840 ,4,0,,0,0.,4.8,0.,4.8,,0,0.,4.8,35.,4.8
1979-07-11 18:27:18.640 ,4,0,,0,0.,4.8,0.,4.8,,0,0.,4.8,43.,4.8
1979-07-11 18:27:23.440 ,4,0,,0,19.,4.8,3.,4.8,,0,0.,4.8,34.,4.8
1979-07-11 18:27:28.240 ,4,0,,0,110.,4.8,15.,4.8,,0,0.,4.8,41.,4.8
1979-07-11 18:27:33.040 ,4,0,,0,114.,4.8,24.,4.8,,0,0.,4.8,40.,4.8
1979-07-11 18:27:37.840 ,4,0,,0,126.,4.8,13.,4.8,,0,0.,4.8,55.,4.8
1979-07-11 18:27:42.640 ,4,0,,0,114.,4.8,19.,4.8,,0,0.,4.8,34.,4.8
1979-07-11 18:27:47.440 ,4,0,,0,106.,4.8,22.,4.8,,0,0.,4.8,48.,4.8
1979-07-11 18:27:52.240 ,4,0,,0,0.,4.8,0.,4.8,,0,0.,4.8,36.,4.8
1979-07-11 18:27:57.040 ,4,0,,0,0.,4.8,0.,4.8,,0,0.,4.8,36.,4.8
1979-07-11 18:28:01.840 ,0,0,,0,0.,4.8,0.,4.8,,0,0.,4.8,53.,4.8
1979-07-11 18:28:06.640 ,0,0,,0,,0,,0,,0,,0,,0
1979-07-11 18:28:11.440 ,0,0,,0,,0,,0,,0,,0,,0
1979-07-11 18:28:16.240 ,0,0,,0,,0,,0,,0,,0,,0
1979-07-11 18:28:21.040 ,0,0,,0,,0,,0,,0,,0,,0
1979-07-11 18:28:25.840 ,0,0,,0,,0,,0,,0,,0,,0
1979-07-11 18:28:30.640 ,0,0,,0,,0,,0,,0,,0,,0
1979-07-11 18:28:35.440 ,0,0,,0,,0,,0,,0,,0,,0
1979-07-11 18:28:40.240 ,0,0,,0,,0,,0,,0,,0,,0
1979-07-11 18:28:45.040 ,0,0,,0,,0,,0,,0,,0,,0
1979-07-11 18:28:25.840 ,5,0,,0,136.,4.8,18.,4.8,,0,0.,4.8,64.,4.8
1979-07-11 18:28:30.640 ,5,0,,0,148.,4.8,22.,4.8,,0,0.,4.8,58.,4.8
1979-07-11 18:28:35.440 ,5,0,,0,126.,4.8,16.,4.8,,0,0.,4.8,60.,4.8
1979-07-11 18:28:40.240 ,5,0,,0,0.,4.8,0.,4.8,,0,0.,4.8,55.,4.8
1979-07-11 18:28:45.040 ,5,0,,0,0.,4.8,0.,4.8,,0,0.,4.8,63.,4.8
1979-07-11 18:28:49.840 ,6,0,,0,0.,4.8,0.,4.8,,0,0.,4.8,78.,4.8
1979-07-11 18:28:54.640 ,6,0,,0,0.,4.8,0.,4.8,,0,0.,4.8,61.,4.8
1979-07-11 18:28:59.440 ,6,0,,0,22.,4.8,2.,4.8,,0,0.,4.8,43.,4.8
1979-07-11 18:29:04.240 ,6,0,,0,122.,4.8,18.,4.8,,0,0.,4.8,37.,4.8
1979-07-11 18:29:09.040 ,6,0,,0,110.,4.8,15.,4.8,,0,0.,4.8,41.,4.8
1979-07-11 18:29:13.840 ,6,0,,0,118.,4.8,15.,4.8,,0,0.,4.8,48.,4.8